Change the Weather History Date:

Saturday, October 6, 2012

  Actual Average Record
Temperature  
Mean Temperature 60 °F -  
Max Temperature 72 °F 55 °F 73 °F (1997)
Min Temperature 49 °F 39 °F 39 °F (1997)
Degree Days  
Heating Degree Days 4    
Growing Degree Days 10 (Base 50)    
Moisture  
Dew Point 50 °F    
Average Humidity 69    
Maximum Humidity 94    
Minimum Humidity 27    
Precipitation  
Precipitation 0.00 in 0.06 in - ()
Sea Level Pressure  
Sea Level Pressure 29.96 in    
Wind  
Wind Speed 8 mph ()    
Max Wind Speed 23 mph    
Max Gust Speed 34 mph    
Visibility 9.1 miles    
Events Rain    
Averages and records for this station are not official NWS values.
T = Trace of Precipitation, MM = Missing Value Source: Averaged Metar Reports

Daily Weather History Graph

Daily Weather History Graph

Search for Another Location

Airport or City:

Trip Planner

Search our weather history database for the weather conditions in past years. The results will help you decide how hot, cold, wet, or windy it might be!

Date:

Astronomy

Oct. 06, 2012 Rise Set
Actual Time 7:23 AM CEST 6:43 PM CEST
Civil Twilight 6:51 AM CEST 7:15 PM CEST
Nautical Twilight 6:14 AM CEST 7:52 PM CEST
Astronomical Twilight 5:36 AM CEST 8:29 PM CEST
Moon 10:18 PM CEST 1:31 PM CEST
Length of Visible Light 12h 23m
Length of Day
11h 19m
Waning Gibbous, 68% of the Moon is Illuminated
Oct 6
Waning Gibbous
Oct 8
Last Quarter
Oct 15
New
Oct 22
First Quarter
Oct 29
Full

Hourly Weather History & Observations

Time (CEST) Temp. Dew Point Humidity Pressure Visibility Wind Dir Wind Speed Gust Speed Precip Events Conditions
12:00 AM 56 °F 51 °F 80% 30.01 in 28 mi SSE 8.9 mph - -   Scattered Clouds
12:20 AM 57.2 °F 51.8 °F 82% 30.01 in - SSE 5.8 mph - N/A   Clear
12:50 AM 57.2 °F 50.0 °F 77% 30.01 in - South 4.6 mph - N/A   Clear
1:00 AM 56 °F 51 °F 77% 30.01 in 28 mi South 8.9 mph - -   Clear
1:20 AM 57.2 °F 50.0 °F 77% 30.01 in - South 5.8 mph - N/A   Clear
1:50 AM 55.4 °F 50.0 °F 82% 30.01 in - South 5.8 mph - N/A   Clear
2:00 AM 56 °F 51 °F 77% 30.01 in 25 mi South 6.7 mph - -   Clear
2:20 AM 55.4 °F 50.0 °F 82% 30.01 in - South 4.6 mph - N/A   Clear
2:50 AM 55.4 °F 50.0 °F 82% 30.01 in - SSE 4.6 mph - N/A   Clear
3:00 AM 55 °F 50 °F 79% 30.01 in 25 mi SSE 6.7 mph - -  
3:20 AM 53.6 °F 50.0 °F 88% 30.01 in - ESE 4.6 mph - N/A   Clear
3:50 AM 51.8 °F 50.0 °F 94% 29.98 in - ESE 5.8 mph - N/A   Clear
4:00 AM 53 °F 50 °F 86% 29.99 in 25 mi ESE 8.9 mph - -   Clear
4:20 AM 51.8 °F 48.2 °F 88% 29.98 in - East 4.6 mph - N/A   Clear
4:50 AM 51.8 °F 50.0 °F 94% 29.98 in - ESE 5.8 mph - N/A   Clear
5:20 AM 51.8 °F 50.0 °F 94% 29.98 in - ESE 5.8 mph - N/A   Clear
5:50 AM 51.8 °F 50.0 °F 94% 29.98 in - ESE 5.8 mph - N/A   Clear
6:00 AM 52 °F 50 °F 90% 29.99 in 25 mi SE 8.9 mph - -  
6:20 AM 50.0 °F 48.2 °F 94% 29.98 in - ESE 5.8 mph - N/A   Clear
6:50 AM 50.0 °F 48.2 °F 94% 29.98 in - ESE 5.8 mph - N/A   Clear
7:00 AM 50 °F 48 °F 90% 29.98 in 25 mi ESE 8.9 mph - -   Clear
7:20 AM 51.8 °F 50.0 °F 94% 29.98 in - East 3.5 mph - N/A   Clear
7:50 AM 50.0 °F 48.2 °F 94% 29.95 in - ESE 5.8 mph - N/A   Clear
8:00 AM 50 °F 48 °F 92% 29.97 in 22 mi ESE 8.9 mph - -   Scattered Clouds
8:20 AM 53.6 °F 51.8 °F 94% 29.95 in - ESE 6.9 mph - N/A   Clear
8:50 AM 55.4 °F 53.6 °F 94% 29.95 in - SE 9.2 mph - N/A   Clear
9:00 AM 56 °F 53 °F 86% 29.95 in 16 mi SE 8.9 mph - -   Scattered Clouds
9:20 AM 59.0 °F 51.8 °F 77% 29.95 in - SSE 6.9 mph - N/A   Clear
9:50 AM 60.8 °F 53.6 °F 77% 29.95 in - South 6.9 mph - N/A   Clear
10:00 AM 61 °F 53 °F 67% 29.94 in 19 mi South 11.2 mph - -   Scattered Clouds
10:20 AM 62.6 °F 53.6 °F 72% 29.95 in - South 5.8 mph - N/A   Clear
10:50 AM 64.4 °F 53.6 °F 68% 29.95 in - SSW 6.9 mph - N/A   Clear
11:20 AM 68.0 °F 51.8 °F 56% 29.95 in - SSW 9.2 mph - N/A   Clear
11:50 AM 68.0 °F 51.8 °F 56% 29.92 in - SW 11.5 mph - N/A   Clear
12:00 PM 69 °F 52 °F 44% 29.90 in 22 mi SW 11.2 mph - -   Scattered Clouds
12:20 PM 68.0 °F 51.8 °F 56% 29.92 in - SW 9.2 mph - N/A   Clear
12:50 PM 68.0 °F 51.8 °F 56% 29.92 in - SSW 8.1 mph - N/A   Clear
1:20 PM 71.6 °F 53.6 °F 53% 29.89 in - SSW 13.8 mph - N/A   Clear
1:50 PM 69.8 °F 51.8 °F 53% 29.89 in 6.2 mi SW 11.5 mph - N/A   Mostly Cloudy
2:00 PM 71 °F 53 °F 43% 29.86 in 25 mi SSW 11.2 mph - -   Scattered Clouds
2:20 PM 71.6 °F 50.0 °F 46% 29.89 in 6.2 mi WSW 17.3 mph 28.8 mph N/A   Mostly Cloudy
2:50 PM 71.6 °F 46.4 °F 41% 29.89 in 6.2 mi WSW 20.7 mph 34.5 mph N/A   Mostly Cloudy
3:00 PM 72 °F 46 °F 29% 29.87 in 25 mi WSW 17.9 mph - -   Scattered Clouds
3:20 PM 71.6 °F 46.4 °F 41% 29.92 in 6.2 mi West 20.7 mph - N/A   Mostly Cloudy
3:50 PM 69.8 °F 42.8 °F 38% 29.92 in - West 23.0 mph - N/A   Clear
4:00 PM 70 °F 43 °F 27% 29.90 in 25 mi West 20.1 mph - -   Scattered Clouds
4:20 PM 68.0 °F 42.8 °F 40% 29.92 in - West 23.0 mph - N/A   Clear
4:50 PM 68.0 °F 44.6 °F 43% 29.95 in - West 20.7 mph 32.2 mph N/A   Clear
5:20 PM 66.2 °F 46.4 °F 49% 29.95 in 6.2 mi West 16.1 mph - N/A Rain Light Rain
5:50 PM 66.2 °F 46.4 °F 49% 29.95 in - West 11.5 mph - N/A   Clear
6:00 PM 66 °F 47 °F 39% 29.92 in 25 mi West 8.9 mph - - Rain Light Rain
6:20 PM 66.2 °F 48.2 °F 52% 29.95 in - West 10.4 mph - N/A   Clear
6:50 PM 64.4 °F 50.0 °F 59% 29.95 in 6.2 mi West 11.5 mph - N/A Rain Light Rain
7:00 PM 64 °F 49 °F 48% 29.94 in 19 mi WSW 8.9 mph - - Rain Light Rain
7:20 PM 64.4 °F 50.0 °F 59% 29.95 in 6.2 mi West 10.4 mph - N/A   Mostly Cloudy
7:50 PM 62.6 °F 50.0 °F 63% 29.95 in - West 5.8 mph - N/A   Clear
8:00 PM 62 °F 51 °F 57% 29.95 in 22 mi West 4.5 mph - - Rain Light Rain
8:20 PM 62.6 °F 51.8 °F 68% 29.98 in - WNW 6.9 mph - N/A   Clear
8:50 PM 60.8 °F 51.8 °F 72% 29.98 in 6.2 mi WNW 6.9 mph - N/A Rain Light Rain
9:00 PM 60 °F 52 °F 67% 29.96 in 16 mi WNW 6.7 mph - - Rain Light Rain
9:20 PM 60.8 °F 51.8 °F 72% 29.98 in 6.2 mi West 6.9 mph - N/A   Mostly Cloudy
9:50 PM 60.8 °F 51.8 °F 72% 29.98 in 6.2 mi West 5.8 mph - N/A Rain Light Rain
10:00 PM 61 °F 51 °F 61% 29.96 in 16 mi West 6.7 mph - - Rain Light Rain
10:20 PM 60.8 °F 50.0 °F 68% 29.98 in 6.2 mi West 9.2 mph - N/A Rain Light Rain
10:50 PM 60.8 °F 50.0 °F 68% 29.98 in 6.2 mi WSW 8.1 mph - N/A Rain Light Rain
11:20 PM 60.8 °F 50.0 °F 68% 29.98 in 6.2 mi WSW 11.5 mph - N/A Rain Light Rain
11:50 PM 59.0 °F 51.8 °F 77% 29.98 in 6.2 mi WSW 9.2 mph - N/A   Mostly Cloudy